Location: Ocean City
(38.3360°N, 75.0850°W)
Time: 08:13:50
(UTC-04:00)

STARS - Pass Details

Date: 25 May 2019
Orbit: 624 x 641 km, 98.3° (Epoch: 25 June)

Event Time Altitude Azimuth Distance (km) Brightness Sun altitude
Rises 20:46:39 0° 12° (NNE) 2,944 ? -6.5°
Reaches altitude 10° 20:48:52 10° 12° (NNE) 2,029 ? -6.9°
Maximum altitude 20:53:17 86° 287° (WNW) 641 ? -7.6°
Drops below altitude 10° 20:57:40 10° 196° (SSW) 2,004 ? -8.3°
Sets 20:59:50 0° 196° (SSW) 2,904 ? -8.6°
